Terminal Aerodrome Forecast
Issued by NWS Raleigh/Durham, NC

Home | Current Version | Previous Version | Text Only | Print | Product List | Glossary On
Versions: 1 2 3 4 5 6 7 8 9 10 11 12 13 14 15 16 17 18 19
000
FTUS42 KRAH 061427 AAA
TAFFAY
TAF AMD
KFAY 061427Z 0614/0712 06012KT 6SM -RA OVC008
      TEMPO 0614/0618 1 1/2SM -RA BR OVC004
     FM061800 04010KT 2SM -RA BR OVC004
     FM062100 04005KT 3SM -DZ BR OVC004
     FM070000 34003KT 4SM BR OVC004
     FM070600 30005KT 1/2SM FG OVC002=

USA.gov is the U.S. government's official web portal to all federal, state and local government web resources and services.